When you browse on this site, cookies collect data to enhance your experience and personalize the content and advertising you see.
Visit our Privacy Policy to learn more. By continuing to use the site, you agree to this use of cookies and data.

Hourly Weather Santiago del Estero

Today, 15 August, Saturday

Time Temperature Precipitation Wind Pressure Humidity
00:00 +14°C° 0 mm 4 mps 741 mmHg 29%
01:00 +13°C° 0 mm 4 mps 741 mmHg 33%
02:00 +12°C° 0 mm 4 mps 742 mmHg 36%
03:00 +11°C° 0 mm 4 mps 742 mmHg 37%
04:00 +11°C° 0 mm 4 mps 742 mmHg 38%
05:00 +10°C° 0 mm 3 mps 742 mmHg 40%
06:00 +10°C° 0 mm 3 mps 742 mmHg 39%
07:00 +11°C° 0 mm 3 mps 742 mmHg 39%
08:00 +13°C° 0 mm 2 mps 743 mmHg 40%
09:00 +15°C° 0 mm 2 mps 743 mmHg 35%
10:00 +17°C° 0 mm 2 mps 743 mmHg 31%
11:00 +19°C° 0 mm 2 mps 743 mmHg 27%
12:00 +20°C° 0 mm 2 mps 742 mmHg 26%
13:00 +21°C° 0 mm 2 mps 741 mmHg 25%
14:00 +24°C° 0 mm 2 mps 741 mmHg 24%
15:00 +24°C° 0 mm 2 mps 741 mmHg 23%
16:00 +24°C° 0 mm 3 mps 741 mmHg 23%
17:00 +24°C° 0 mm 3 mps 741 mmHg 22%
18:00 +21°C° 0 mm 3 mps 742 mmHg 24%
19:00 +19°C° 0 mm 3 mps 743 mmHg 26%
20:00 +16°C° 0 mm 3 mps 744 mmHg 29%
21:00 +14°C° 0 mm 3 mps 744 mmHg 30%
22:00 +13°C° 0 mm 3 mps 745 mmHg 31%
23:00 +12°C° 0 mm 3 mps 745 mmHg 33%

Tomorrow, 16 August, Sunday

Time Temperature Precipitation Wind Pressure Humidity
00:00 +12°C° 0 mm 2 mps 745 mmHg 36%
01:00 +9°C° 0 mm 2 mps 745 mmHg 39%
02:00 +9°C° 0 mm 1 mps 745 mmHg 42%
03:00 +9°C° 0 mm 1 mps 745 mmHg 44%
04:00 +8°C° 0 mm 1 mps 745 mmHg 46%
05:00 +6°C° 0 mm 0 mps 744 mmHg 48%
06:00 +9°C° 0 mm 1 mps 745 mmHg 45%
07:00 +10°C° 0 mm 1 mps 745 mmHg 41%
08:00 +12°C° 0 mm 1 mps 745 mmHg 37%
09:00 +14°C° 0 mm 2 mps 745 mmHg 34%
10:00 +17°C° 0 mm 3 mps 744 mmHg 31%
11:00 +20°C° 0 mm 4 mps 743 mmHg 28%
12:00 +21°C° 0 mm 4 mps 742 mmHg 26%
13:00 +23°C° 0 mm 4 mps 741 mmHg 25%
14:00 +25°C° 0 mm 5 mps 740 mmHg 24%
15:00 +25°C° 0 mm 4 mps 740 mmHg 24%
16:00 +25°C° 0 mm 4 mps 740 mmHg 24%
17:00 +25°C° 0 mm 4 mps 740 mmHg 25%
18:00 +22°C° 0 mm 3 mps 740 mmHg 27%
19:00 +19°C° 0 mm 3 mps 741 mmHg 29%
20:00 +17°C° 0 mm 3 mps 741 mmHg 32%
21:00 +16°C° 0 mm 3 mps 741 mmHg 31%
22:00 +14°C° 0 mm 3 mps 742 mmHg 29%
23:00 +13°C° 0 mm 3 mps 742 mmHg 28%

Day after tomorrow, 17 August, Monday

Time Temperature Precipitation Wind Pressure Humidity
00:00 +13°C° 0 mm 2 mps 742 mmHg 30%
01:00 +12°C° 0 mm 2 mps 742 mmHg 32%
02:00 +10°C° 0 mm 2 mps 742 mmHg 34%
03:00 +10°C° 0 mm 2 mps 742 mmHg 36%
04:00 +9°C° 0 mm 2 mps 742 mmHg 37%
05:00 +9°C° 0 mm 2 mps 742 mmHg 39%
06:00 +10°C° 0 mm 2 mps 743 mmHg 37%
07:00 +12°C° 0 mm 2 mps 743 mmHg 36%
08:00 +12°C° 0 mm 3 mps 744 mmHg 35%
09:00 +16°C° 0 mm 3 mps 744 mmHg 30%
10:00 +19°C° 0 mm 3 mps 743 mmHg 26%
11:00 +22°C° 0 mm 4 mps 743 mmHg 21%
12:00 +23°C° 0 mm 4 mps 742 mmHg 20%
13:00 +26°C° 0 mm 4 mps 741 mmHg 19%
14:00 +27°C° 0 mm 4 mps 740 mmHg 19%
15:00 +27°C° 0 mm 4 mps 740 mmHg 19%
16:00 +26°C° 0 mm 4 mps 739 mmHg 20%
17:00 +26°C° 0 mm 4 mps 739 mmHg 21%
18:00 +23°C° 0 mm 4 mps 739 mmHg 25%
19:00 +20°C° 0 mm 3 mps 739 mmHg 28%
20:00 +18°C° 0 mm 3 mps 739 mmHg 32%
21:00 +17°C° 0 mm 3 mps 739 mmHg 30%
22:00 +16°C° 0 mm 3 mps 739 mmHg 29%
23:00 +14°C° 0 mm 3 mps 739 mmHg 28%

18 August, Tuesday

Time Temperature Precipitation Wind Pressure Humidity
00:00 +13°C° 0 mm 3 mps 738 mmHg 29%
01:00 +12°C° 0 mm 3 mps 738 mmHg 30%
02:00 +13°C° 0 mm 2 mps 737 mmHg 31%
03:00 +12°C° 0 mm 2 mps 737 mmHg 33%
04:00 +10°C° 0 mm 2 mps 737 mmHg 34%
05:00 +10°C° 0 mm 2 mps 736 mmHg 36%
06:00 +12°C° 0 mm 2 mps 737 mmHg 35%
07:00 +13°C° 0 mm 2 mps 737 mmHg 33%
08:00 +14°C° 0 mm 2 mps 737 mmHg 32%
09:00 +16°C° 0 mm 2 mps 737 mmHg 28%
10:00 +19°C° 0 mm 2 mps 737 mmHg 25%
11:00 +22°C° 0 mm 3 mps 737 mmHg 21%
12:00 +25°C° 0 mm 3 mps 736 mmHg 20%
13:00 +26°C° 0 mm 2 mps 736 mmHg 20%
14:00 +28°C° 0 mm 2 mps 735 mmHg 19%
15:00 +28°C° 0 mm 2 mps 735 mmHg 19%
16:00 +28°C° 0 mm 2 mps 735 mmHg 19%
17:00 +28°C° 0 mm 2 mps 735 mmHg 19%
18:00 +25°C° 0 mm 2 mps 736 mmHg 27%
19:00 +21°C° 0 mm 2 mps 736 mmHg 34%
20:00 +18°C° 0 mm 1 mps 737 mmHg 41%
21:00 +17°C° 0 mm 2 mps 738 mmHg 40%
22:00 +17°C° 0 mm 3 mps 739 mmHg 39%
23:00 +17°C° 0 mm 3 mps 740 mmHg 38%

19 August, Wednesday

Time Temperature Precipitation Wind Pressure Humidity
00:00 +15°C° 0 mm 5 mps 741 mmHg 39%
01:00 +14°C° 0 mm 6 mps 741 mmHg 40%
02:00 +12°C° 0 mm 7 mps 742 mmHg 40%
03:00 +11°C° 0 mm 6 mps 743 mmHg 41%
04:00 +11°C° 0 mm 6 mps 744 mmHg 41%
05:00 +10°C° 0 mm 6 mps 744 mmHg 42%
06:00 +10°C° 0 mm 6 mps 746 mmHg 39%
07:00 +10°C° 0 mm 7 mps 747 mmHg 36%
08:00 +11°C° 0 mm 7 mps 748 mmHg 33%
09:00 +12°C° 0 mm 7 mps 749 mmHg 29%
10:00 +14°C° 0 mm 6 mps 750 mmHg 26%
11:00 +15°C° 0 mm 6 mps 750 mmHg 23%
12:00 +16°C° 0 mm 6 mps 750 mmHg 23%
13:00 +17°C° 0 mm 6 mps 749 mmHg 23%
14:00 +17°C° 0 mm 6 mps 749 mmHg 22%
15:00 +17°C° 0 mm 6 mps 749 mmHg 22%
16:00 +16°C° 0 mm 6 mps 749 mmHg 21%
17:00 +16°C° 0 mm 6 mps 749 mmHg 20%
18:00 +14°C° 0 mm 5 mps 750 mmHg 21%
19:00 +12°C° 0 mm 4 mps 751 mmHg 23%
20:00 +10°C° 0 mm 4 mps 752 mmHg 24%
21:00 +9°C° 0 mm 3 mps 753 mmHg 25%
22:00 +8°C° 0 mm 3 mps 754 mmHg 26%
23:00 +7°C° 0 mm 2 mps 755 mmHg 28%

20 August, Thursday

Time Temperature Precipitation Wind Pressure Humidity
00:00 +7°C° 0 mm 3 mps 755 mmHg 29%
01:00 +5°C° 0 mm 3 mps 755 mmHg 31%
02:00 +5°C° 0 mm 3 mps 755 mmHg 32%
03:00 +4°C° 0 mm 3 mps 756 mmHg 34%
04:00 +4°C° 0 mm 3 mps 756 mmHg 35%
05:00 +3°C° 0 mm 3 mps 756 mmHg 37%
06:00 +4°C° 0 mm 4 mps 757 mmHg 35%
07:00 +5°C° 0 mm 4 mps 757 mmHg 34%
08:00 +6°C° 0 mm 4 mps 758 mmHg 32%
09:00 +8°C° 0 mm 4 mps 758 mmHg 29%
10:00 +10°C° 0 mm 4 mps 758 mmHg 26%
11:00 +12°C° 0 mm 3 mps 758 mmHg 22%
12:00 +13°C° 0 mm 3 mps 757 mmHg 21%
13:00 +14°C° 0 mm 4 mps 756 mmHg 20%
14:00 +15°C° 0 mm 4 mps 755 mmHg 18%
15:00 +14°C° 0 mm 4 mps 755 mmHg 18%
16:00 +14°C° 0 mm 4 mps 755 mmHg 17%
17:00 +14°C° 0 mm 4 mps 754 mmHg 17%
18:00 +12°C° 0 mm 4 mps 755 mmHg 19%
19:00 +10°C° 0 mm 3 mps 755 mmHg 21%
20:00 +7°C° 0 mm 2 mps 756 mmHg 22%
21:00 +6°C° 0 mm 2 mps 756 mmHg 24%
22:00 +6°C° 0 mm 2 mps 756 mmHg 25%
23:00 +6°C° 0 mm 1 mps 756 mmHg 27%
Show more